| time (UTC) | temp F | wind direction | speed knots | gust knots | rain 1hr in | rain 24hr in | rain mn in | humidity % | barometer mb |
| 20260505185959 | 84 | 217 | 2.6 | 7.0 | 0.00 | 0.00 | 0.00 | 32 | 1013.9 |
| 20260505185456 | 85 | 148 | 1.7 | 5.2 | 0.00 | 0.00 | 0.00 | 31 | 1014.0 |
| 20260505184952 | 83 | 164 | 3.5 | 6.1 | 0.00 | 0.00 | 0.00 | 32 | 1014.3 |
| 20260505184449 | 84 | 189 | 4.3 | 7.8 | 0.00 | 0.00 | 0.00 | 30 | 1014.2 |
| 20260505183945 | 84 | 143 | 2.6 | 7.0 | 0.00 | 0.00 | 0.00 | 30 | 1014.2 |
| 20260505183443 | 84 | 190 | 3.5 | 5.2 | 0.00 | 0.00 | 0.00 | 30 | 1014.3 |
| 20260505182939 | 85 | 143 | 3.5 | 8.7 | 0.00 | 0.00 | 0.00 | 30 | 1014.2 |
| 20260505182437 | 84 | 133 | 3.5 | 7.8 | 0.00 | 0.00 | 0.00 | 30 | 1014.2 |
| 20260505181932 | 85 | 199 | 3.5 | 5.2 | 0.00 | 0.00 | 0.00 | 32 | 1014.2 |
| 20260505181430 | 84 | 202 | 1.7 | 3.5 | 0.00 | 0.00 | 0.00 | 33 | 1014.4 |
| 20260505180927 | 84 | 121 | 1.7 | 7.8 | 0.00 | 0.00 | 0.00 | 33 | 1014.4 |
| 20260505180423 | 84 | 152 | 0.9 | 5.2 | 0.00 | 0.00 | 0.00 | 34 | 1014.4 |
| 20260505175920 | 83 | 151 | 0.9 | 5.2 | 0.00 | 0.00 | 0.00 | 35 | 1014.7 |
| 20260505175416 | 84 | 223 | 2.6 | 5.2 | 0.00 | 0.00 | 0.00 | 34 | 1014.7 |
| 20260505174912 | 84 | 196 | 3.5 | 7.0 | 0.00 | 0.00 | 0.00 | 33 | 1014.7 |
| 20260505174410 | 83 | 199 | 1.7 | 5.2 | 0.00 | 0.00 | 0.00 | 35 | 1014.8 |
| 20260505173906 | 84 | 150 | 0.9 | 1.7 | 0.00 | 0.00 | 0.00 | 37 | 1014.9 |
| 20260505173403 | 83 | 194 | 3.5 | 5.2 | 0.00 | 0.00 | 0.00 | 36 | 1014.9 |
| 20260505172900 | 82 | 175 | 2.6 | 7.8 | 0.00 | 0.00 | 0.00 | 38 | 1015.0 |
| 20260505172358 | 84 | 159 | 0.9 | 1.7 | 0.00 | 0.00 | 0.00 | 38 | 1015.0 |
| 20260505171857 | 82 | 150 | 0.0 | 5.2 | 0.00 | 0.00 | 0.00 | 40 | 1015.2 |
| 20260505171354 | 82 | 174 | 0.0 | 6.1 | 0.00 | 0.00 | 0.00 | 42 | 1015.1 |
| 20260505170851 | 83 | 210 | 0.9 | 5.2 | 0.00 | 0.00 | 0.00 | 40 | 1015.2 |
| 20260505170348 | 82 | 107 | 1.7 | 2.6 | 0.00 | 0.00 | 0.00 | 42 | 1015.1 |
| 20260505165843 | 82 | 60 | 1.7 | 6.1 | 0.00 | 0.00 | 0.00 | 40 | 1015.2 |
| 20260505165339 | 82 | 122 | 0.9 | 2.6 | 0.00 | 0.00 | 0.00 | 42 | 1015.3 |
| 20260505164835 | 82 | 209 | 4.3 | 6.1 | 0.00 | 0.00 | 0.00 | 41 | 1015.3 |
| 20260505164331 | 81 | 146 | 0.9 | 3.5 | 0.00 | 0.00 | 0.00 | 42 | 1015.5 |
| 20260505163830 | 80 | 189 | 0.9 | 2.6 | 0.00 | 0.00 | 0.00 | 42 | 1015.3 |
| 20260505163328 | 81 | 168 | 1.7 | 5.2 | 0.00 | 0.00 | 0.00 | 44 | 1015.3 |
| 20260505162826 | 81 | 187 | 0.9 | 3.5 | 0.00 | 0.00 | 0.00 | 42 | 1015.5 |
| 20260505162322 | 81 | 201 | 0.9 | 2.6 | 0.00 | 0.00 | 0.00 | 42 | 1015.5 |
| 20260505161819 | 80 | 133 | 2.6 | 2.6 | 0.00 | 0.00 | 0.00 | 44 | 1015.8 |
| 20260505161317 | 80 | 110 | 2.6 | 2.6 | 0.00 | 0.00 | 0.00 | 45 | 1015.9 |
| 20260505160814 | 79 | 192 | 3.5 | 3.5 | 0.00 | 0.00 | 0.00 | 46 | 1015.8 |
| 20260505160312 | 79 | 235 | 0.9 | 5.2 | 0.00 | 0.00 | 0.00 | 46 | 1016.1 |
| 20260505153250 | 78 | 124 | 0.0 | 3.5 | 0.00 | 0.00 | 0.00 | 48 | 1016.2 |
| 20260505152747 | 77 | 154 | 0.9 | 2.6 | 0.00 | 0.00 | 0.00 | 48 | 1016.3 |
| 20260505152244 | 78 | 148 | 0.0 | 3.5 | 0.00 | 0.00 | 0.00 | 49 | 1016.1 |
| 20260505151738 | 77 | 177 | 0.9 | 1.7 | 0.00 | 0.00 | 0.00 | 48 | 1016.2 |
| 20260505151236 | 77 | 197 | 0.9 | 1.7 | 0.00 | 0.00 | 0.00 | 49 | 1016.2 |
| 20260505150732 | 77 | 131 | 2.6 | 3.5 | 0.00 | 0.00 | 0.00 | 48 | 1016.3 |
| 20260505150230 | 77 | 142 | 1.7 | 2.6 | 0.00 | 0.00 | 0.00 | 50 | 1016.1 |
| 20260505140154 | 72 | 143 | 0.0 | 0.9 | 0.00 | 0.00 | 0.00 | 54 | 1016.1 |
| 20260505130118 | 68 | 222 | 0.0 | 0.9 | 0.00 | 0.00 | 0.00 | 61 | 1016.5 |
| 20260505124607 | 66 | 180 | 0.9 | 0.9 | 0.00 | 0.00 | 0.00 | 65 | 1016.5 |
| 20260505124104 | 65 | 177 | 0.9 | 1.7 | 0.00 | 0.00 | 0.00 | 67 | 1016.6 |
| 20260505123600 | 65 | 153 | 0.9 | 0.9 | 0.00 | 0.00 | 0.00 | 68 | 1016.5 |
| 20260505123057 | 65 | 179 | 0.9 | 0.9 | 0.00 | 0.00 | 0.00 | 68 | 1016.6 |
| 20260505122553 | 64 | 144 | 0.0 | 1.7 | 0.00 | 0.00 | 0.00 | 68 | 1016.6 |
| 20260505122051 | 63 | 166 | 0.9 | 2.6 | 0.00 | 0.00 | 0.00 | 70 | 1016.3 |
| 20260505121547 | 63 | 162 | 0.0 | 1.7 | 0.00 | 0.00 | 0.00 | 70 | 1016.7 |
| 20260505121044 | 63 | 154 | 0.0 | 1.7 | 0.00 | 0.00 | 0.00 | 71 | 1016.5 |
| 20260505120540 | 63 | 163 | 1.7 | 5.2 | 0.00 | 0.00 | 0.00 | 71 | 1016.5 |
| 20260505120036 | 63 | 189 | 1.7 | 6.1 | 0.00 | 0.00 | 0.00 | 72 | 1016.2 |
| 20260505115531 | 62 | 129 | 1.7 | 2.6 | 0.00 | 0.00 | 0.00 | 72 | 1016.2 |
| 20260505115029 | 61 | 139 | 0.9 | 3.5 | 0.00 | 0.00 | 0.00 | 75 | 1016.1 |
| 20260505114525 | 60 | 159 | 0.0 | 0.0 | 0.00 | 0.00 | 0.00 | 76 | 1016.2 |
| 20260505114022 | 60 | 124 | 0.0 | 0.9 | 0.00 | 0.00 | 0.00 | 75 | 1016.1 |
| 20260505113518 | 60 | 151 | 0.0 | 0.9 | 0.00 | 0.00 | 0.00 | 75 | 1016.0 |
| 20260505113014 | 60 | 166 | 1.7 | 3.5 | 0.00 | 0.00 | 0.00 | 76 | 1015.9 |
| 20260505112511 | 60 | 160 | 1.7 | 2.6 | 0.00 | 0.00 | 0.00 | 76 | 1015.9 |
| 20260505112009 | 59 | 144 | 0.9 | 2.6 | 0.00 | 0.00 | 0.00 | 77 | 1015.8 |
| 20260505111502 | 59 | 126 | 0.0 | 2.6 | 0.00 | 0.00 | 0.00 | 78 | 1015.7 |
| 20260505110959 | 58 | 156 | 0.0 | 1.7 | 0.00 | 0.00 | 0.00 | 80 | 1015.8 |
| 20260505110455 | 58 | 151 | 0.0 | 0.9 | 0.00 | 0.00 | 0.00 | 80 | 1015.7 |
| 20260505101927 | 58 | 156 | 0.0 | 0.9 | 0.00 | 0.00 | 0.00 | 79 | 1015.4 |
| 20260505101421 | 58 | 151 | 0.9 | 1.7 | 0.00 | 0.00 | 0.00 | 80 | 1015.5 |
| 20260505100917 | 58 | 151 | 0.0 | 0.9 | 0.00 | 0.00 | 0.00 | 79 | 1015.5 |
| 20260505100414 | 58 | 151 | 0.0 | 0.9 | 0.00 | 0.00 | 0.00 | 79 | 1015.1 |
| 20260505095909 | 59 | 141 | 0.0 | 0.0 | 0.00 | 0.00 | 0.00 | 78 | 1015.3 |
| 20260505095407 | 59 | 144 | 0.0 | 1.7 | 0.00 | 0.00 | 0.00 | 77 | 1015.4 |
| 20260505094903 | 58 | 116 | 0.0 | 0.0 | 0.00 | 0.00 | 0.00 | 78 | 1015.3 |
| 20260505094400 | 59 | 166 | 0.0 | 0.9 | 0.00 | 0.00 | 0.00 | 77 | 1015.2 |
| 20260505093855 | 59 | 135 | 0.0 | 0.9 | 0.00 | 0.00 | 0.00 | 76 | 1015.1 |
| 20260505093353 | 59 | 108 | 0.9 | 1.7 | 0.00 | 0.00 | 0.00 | 76 | 1015.2 |
| 20260505092850 | 60 | 159 | 0.9 | 0.9 | 0.00 | 0.00 | 0.00 | 75 | 1015.3 |
| 20260505092348 | 60 | 208 | 0.9 | 1.7 | 0.00 | 0.00 | 0.00 | 75 | 1015.0 |
| 20260505091845 | 60 | 181 | 0.9 | 1.7 | 0.00 | 0.00 | 0.00 | 75 | 1015.2 |
| 20260505091343 | 60 | 154 | 0.0 | 3.5 | 0.00 | 0.00 | 0.00 | 75 | 1015.0 |
| 20260505090841 | 60 | 155 | 0.0 | 0.0 | 0.00 | 0.00 | 0.00 | 75 | 1015.2 |
| 20260505090339 | 60 | 151 | 0.0 | 1.7 | 0.00 | 0.00 | 0.00 | 74 | 1015.2 |
| 20260505085836 | 60 | 126 | 0.0 | 0.9 | 0.00 | 0.00 | 0.00 | 74 | 1015.1 |
| 20260505085334 | 60 | 136 | 0.0 | 2.6 | 0.00 | 0.00 | 0.00 | 74 | 1015.1 |
| 20260505084831 | 60 | 166 | 0.0 | 1.7 | 0.00 | 0.00 | 0.00 | 73 | 1015.2 |
| 20260505084330 | 61 | 117 | 0.0 | 2.6 | 0.00 | 0.00 | 0.00 | 73 | 1015.1 |
| 20260505083826 | 61 | 168 | 0.0 | 1.7 | 0.00 | 0.00 | 0.00 | 72 | 1015.1 |
| 20260505083324 | 60 | 162 | 0.0 | 0.9 | 0.00 | 0.00 | 0.00 | 73 | 1015.0 |
| 20260505082820 | 60 | 121 | 0.0 | 5.2 | 0.00 | 0.00 | 0.00 | 73 | 1015.1 |
| 20260505082317 | 60 | 152 | 0.0 | 0.9 | 0.00 | 0.00 | 0.00 | 73 | 1015.1 |
| 20260505081813 | 60 | 153 | 0.0 | 0.9 | 0.00 | 0.00 | 0.00 | 73 | 1015.1 |
| 20260505081310 | 60 | 113 | 0.0 | 0.0 | 0.00 | 0.00 | 0.00 | 73 | 1015.2 |
| 20260505080807 | 60 | 141 | 0.0 | 0.9 | 0.00 | 0.00 | 0.00 | 72 | 1015.2 |
| 20260505080303 | 61 | 141 | 0.0 | 0.0 | 0.00 | 0.00 | 0.00 | 72 | 1015.0 |
| 20260505075758 | 61 | 193 | 0.9 | 0.9 | 0.00 | 0.00 | 0.00 | 72 | 1015.2 |
| 20260505075256 | 61 | 116 | 0.9 | 1.7 | 0.00 | 0.00 | 0.00 | 71 | 1015.1 |
| 20260505074753 | 61 | 195 | 0.0 | 0.9 | 0.00 | 0.00 | 0.00 | 71 | 1015.0 |
| 20260505074250 | 61 | 151 | 0.0 | 0.9 | 0.00 | 0.00 | 0.00 | 71 | 1015.1 |
| 20260505073747 | 61 | 162 | 0.0 | 0.9 | 0.00 | 0.00 | 0.00 | 71 | 1015.2 |
| 20260505073245 | 61 | 149 | 0.0 | 0.0 | 0.00 | 0.00 | 0.00 | 71 | 1014.9 |
| 20260505072742 | 61 | 174 | 0.0 | 0.9 | 0.00 | 0.00 | 0.00 | 70 | 1014.8 |
| 20260505072238 | 61 | 151 | 0.9 | 0.9 | 0.00 | 0.00 | 0.00 | 70 | 1014.7 |
| 20260505071733 | 61 | 145 | 0.0 | 1.7 | 0.00 | 0.00 | 0.00 | 70 | 1014.9 |
| 20260505071231 | 61 | 137 | 0.9 | 1.7 | 0.00 | 0.00 | 0.00 | 70 | 1014.8 |
| 20260505070728 | 61 | 141 | 0.0 | 0.0 | 0.00 | 0.00 | 0.00 | 70 | 1014.7 |
| 20260505070224 | 61 | 166 | 0.0 | 0.0 | 0.00 | 0.00 | 0.00 | 69 | 1014.5 |
| 20260505065720 | 61 | 162 | 0.9 | 0.9 | 0.00 | 0.00 | 0.00 | 69 | 1014.8 |
| 20260505065217 | 62 | 99 | 0.0 | 0.0 | 0.00 | 0.00 | 0.00 | 68 | 1015.0 |
| 20260505064714 | 62 | 141 | 0.0 | 0.9 | 0.00 | 0.00 | 0.00 | 67 | 1014.8 |
| 20260505064212 | 62 | 151 | 0.0 | 1.7 | 0.00 | 0.00 | 0.00 | 67 | 1014.6 |
| 20260505063709 | 62 | 173 | 0.0 | 1.7 | 0.00 | 0.00 | 0.00 | 66 | 1014.6 |
| 20260505063205 | 62 | 152 | 0.0 | 1.7 | 0.00 | 0.00 | 0.00 | 66 | 1014.5 |
| 20260505062701 | 62 | 154 | 0.0 | 0.9 | 0.00 | 0.00 | 0.00 | 65 | 1014.5 |
| 20260505062200 | 63 | 135 | 0.0 | 2.6 | 0.00 | 0.00 | 0.00 | 64 | 1014.5 |
| 20260505061656 | 63 | 132 | 1.7 | 5.2 | 0.00 | 0.00 | 0.00 | 64 | 1014.4 |
| 20260505061154 | 63 | 200 | 0.9 | 2.6 | 0.00 | 0.00 | 0.00 | 64 | 1014.3 |
| 20260505060651 | 63 | 141 | 0.0 | 1.7 | 0.00 | 0.00 | 0.00 | 64 | 1014.5 |
| 20260505060148 | 63 | 186 | 1.7 | 5.2 | 0.00 | 0.00 | 0.00 | 64 | 1014.6 |
| 20260505055643 | 63 | 155 | 0.0 | 0.9 | 0.00 | 0.00 | 0.00 | 63 | 1014.6 |
| 20260505055140 | 63 | 151 | 1.7 | 3.5 | 0.00 | 0.00 | 0.00 | 63 | 1014.5 |
| 20260505054638 | 63 | 145 | 0.0 | 1.7 | 0.00 | 0.00 | 0.00 | 63 | 1014.6 |
| 20260505054136 | 63 | 115 | 0.9 | 5.2 | 0.00 | 0.00 | 0.00 | 62 | 1014.6 |
| 20260505053633 | 63 | 151 | 0.9 | 2.6 | 0.00 | 0.00 | 0.00 | 62 | 1014.6 |
| 20260505053129 | 63 | 177 | 0.0 | 1.7 | 0.00 | 0.00 | 0.00 | 61 | 1014.6 |
| 20260505052626 | 64 | 183 | 0.0 | 2.6 | 0.00 | 0.00 | 0.00 | 61 | 1014.5 |
| 20260505052124 | 64 | 132 | 0.9 | 2.6 | 0.00 | 0.00 | 0.00 | 61 | 1014.6 |
| 20260505051621 | 64 | 123 | 0.9 | 3.5 | 0.00 | 0.00 | 0.00 | 59 | 1014.7 |
| 20260505051119 | 64 | 118 | 0.9 | 6.1 | 0.00 | 0.00 | 0.00 | 59 | 1014.6 |
| 20260505050616 | 64 | 160 | 1.7 | 5.2 | 0.00 | 0.00 | 0.00 | 58 | 1014.7 |
| 20260505050114 | 64 | 174 | 0.9 | 1.7 | 0.00 | 0.00 | 0.00 | 58 | 1014.5 |
| 20260505041544 | 65 | 136 | 0.9 | 5.2 | 0.00 | 0.00 | 0.00 | 54 | 1014.3 |
| 20260505041041 | 65 | 171 | 0.0 | 0.9 | 0.00 | 0.00 | 0.00 | 54 | 1014.2 |
| 20260505040538 | 65 | 141 | 0.9 | 1.7 | 0.00 | 0.00 | 0.00 | 53 | 1014.0 |
| 20260505040036 | 65 | 193 | 1.7 | 2.6 | 0.00 | 0.00 | 0.00 | 54 | 1014.2 |
| 20260505035531 | 65 | 132 | 0.0 | 0.9 | 0.00 | 0.00 | 0.00 | 54 | 1014.2 |
| 20260505035028 | 65 | 149 | 0.0 | 1.7 | 0.00 | 0.00 | 0.00 | 55 | 1014.2 |
| 20260505034525 | 65 | 137 | 0.0 | 0.9 | 0.00 | 0.00 | 0.00 | 54 | 1014.3 |
| 20260505034022 | 65 | 178 | 0.0 | 0.0 | 0.00 | 0.00 | 0.00 | 54 | 1014.2 |
| 20260505033519 | 65 | 151 | 0.0 | 0.0 | 0.00 | 0.00 | 0.00 | 54 | 1014.3 |
| 20260505033017 | 65 | 170 | 0.9 | 0.9 | 0.00 | 0.00 | 0.00 | 53 | 1014.1 |
| 20260505032514 | 66 | 141 | 0.0 | 1.7 | 0.00 | 0.00 | 0.00 | 52 | 1014.1 |
| 20260505032010 | 65 | 150 | 0.0 | 0.0 | 0.00 | 0.00 | 0.00 | 54 | 1014.0 |
| 20260505031508 | 66 | 153 | 0.0 | 0.9 | 0.00 | 0.00 | 0.00 | 53 | 1014.0 |
| 20260505031004 | 65 | 150 | 0.0 | 0.0 | 0.00 | 0.00 | 0.00 | 53 | 1014.1 |
| 20260505030501 | 65 | 128 | 0.0 | 0.0 | 0.00 | 0.00 | 0.00 | 54 | 1014.1 |
| 20260505025956 | 65 | 141 | 0.0 | 0.0 | 0.00 | 0.00 | 0.00 | 54 | 1014.0 |
| 20260505025453 | 65 | 159 | 0.0 | 0.9 | 0.00 | 0.00 | 0.00 | 54 | 1014.1 |
| 20260505024952 | 65 | 149 | 0.0 | 0.0 | 0.00 | 0.00 | 0.00 | 53 | 1014.0 |
| 20260505024449 | 66 | 135 | 0.0 | 0.9 | 0.00 | 0.00 | 0.00 | 53 | 1014.1 |
| 20260505023946 | 66 | 153 | 0.0 | 0.9 | 0.00 | 0.00 | 0.00 | 53 | 1014.0 |
| 20260505023443 | 65 | 159 | 1.7 | 1.7 | 0.00 | 0.00 | 0.00 | 52 | 1014.1 |
| 20260505022940 | 66 | 154 | 0.0 | 0.0 | 0.00 | 0.00 | 0.00 | 52 | 1014.0 |
| 20260505022438 | 66 | 155 | 0.0 | 1.7 | 0.00 | 0.00 | 0.00 | 51 | 1014.1 |
| 20260505021935 | 66 | 153 | 0.0 | 1.7 | 0.00 | 0.00 | 0.00 | 50 | 1014.0 |
| 20260505021431 | 67 | 180 | 0.0 | 1.7 | 0.00 | 0.00 | 0.00 | 50 | 1014.1 |
| 20260505020927 | 66 | 166 | 0.0 | 1.7 | 0.00 | 0.00 | 0.00 | 51 | 1014.0 |
| 20260505020422 | 66 | 150 | 0.0 | 0.0 | 0.00 | 0.00 | 0.00 | 52 | 1013.8 |
| 20260505015919 | 66 | 155 | 0.0 | 0.0 | 0.00 | 0.00 | 0.00 | 51 | 1013.9 |
| 20260505015417 | 66 | 145 | 0.9 | 0.9 | 0.00 | 0.00 | 0.00 | 50 | 1014.0 |
| 20260505014914 | 66 | 153 | 0.0 | 0.0 | 0.00 | 0.00 | 0.00 | 51 | 1014.0 |
| 20260505014411 | 67 | 165 | 0.0 | 0.0 | 0.00 | 0.00 | 0.00 | 50 | 1013.8 |
| 20260505013908 | 67 | 165 | 0.0 | 0.0 | 0.00 | 0.00 | 0.00 | 50 | 1013.7 |
| 20260505013404 | 67 | 166 | 0.0 | 0.0 | 0.00 | 0.00 | 0.00 | 48 | 1013.7 |
| 20260505012903 | 68 | 151 | 0.0 | 0.0 | 0.00 | 0.00 | 0.00 | 48 | 1013.6 |
| 20260505012400 | 68 | 155 | 0.0 | 0.0 | 0.00 | 0.00 | 0.00 | 48 | 1013.4 |
| 20260505011856 | 69 | 151 | 0.0 | 0.0 | 0.00 | 0.00 | 0.00 | 47 | 1013.4 |
| 20260505011353 | 69 | 163 | 0.0 | 0.9 | 0.00 | 0.00 | 0.00 | 45 | 1013.5 |
| 20260505010849 | 69 | 151 | 0.0 | 0.0 | 0.00 | 0.00 | 0.00 | 45 | 1013.1 |
| 20260505010345 | 70 | 155 | 0.0 | 0.0 | 0.00 | 0.00 | 0.00 | 44 | 1013.4 |
| 20260505005842 | 70 | 141 | 0.0 | 0.0 | 0.00 | 0.00 | 0.00 | 43 | 1013.2 |
| 20260505005338 | 70 | 151 | 0.0 | 0.9 | 0.00 | 0.00 | 0.00 | 43 | 1013.3 |
| 20260505004836 | 69 | 134 | 0.0 | 0.0 | 0.00 | 0.00 | 0.00 | 44 | 1013.2 |
| 20260505004332 | 70 | 141 | 0.0 | 0.0 | 0.00 | 0.00 | 0.00 | 46 | 1013.2 |
| 20260505003830 | 70 | 124 | 0.0 | 0.9 | 0.00 | 0.00 | 0.00 | 46 | 1013.4 |
| 20260505003327 | 70 | 151 | 0.0 | 0.9 | 0.00 | 0.00 | 0.00 | 44 | 1013.6 |
| 20260505002822 | 69 | 235 | 0.0 | 0.9 | 0.00 | 0.00 | 0.00 | 44 | 1013.2 |
| 20260505002320 | 69 | 155 | 0.0 | 0.9 | 0.00 | 0.00 | 0.00 | 44 | 1013.3 |
| 20260505001818 | 69 | 147 | 0.0 | 0.0 | 0.00 | 0.00 | 0.00 | 44 | 1013.4 |
| 20260505001315 | 69 | 155 | 0.0 | 0.0 | 0.00 | 0.00 | 0.00 | 44 | 1013.5 |
| 20260505000812 | 70 | 153 | 0.0 | 0.9 | 0.00 | 0.00 | 0.00 | 43 | 1013.3 |
| 20260505000310 | 69 | 179 | 0.9 | 0.9 | 0.00 | 0.00 | 0.00 | 42 | 1013.4 |
| 20260504235806 | 70 | 154 | 0.0 | 0.0 | 0.00 | 0.00 | 0.00 | 42 | 1013.4 |
| 20260504235304 | 71 | 154 | 0.0 | 0.0 | 0.00 | 0.00 | 0.00 | 41 | 1013.3 |
| 20260504234800 | 71 | 133 | 0.9 | 0.9 | 0.00 | 0.00 | 0.00 | 40 | 1013.4 |
| 20260504234258 | 72 | 158 | 0.0 | 0.9 | 0.00 | 0.00 | 0.00 | 40 | 1013.1 |
| 20260504233753 | 72 | 146 | 0.0 | 0.9 | 0.00 | 0.00 | 0.00 | 39 | 1013.2 |
| 20260504233249 | 73 | 157 | 0.0 | 0.9 | 0.00 | 0.00 | 0.00 | 39 | 1013.3 |
| 20260504232746 | 73 | 189 | 0.9 | 1.7 | 0.00 | 0.00 | 0.00 | 37 | 1013.1 |
| 20260504232243 | 73 | 180 | 0.9 | 1.7 | 0.00 | 0.00 | 0.00 | 36 | 1013.0 |
| 20260504231740 | 74 | 149 | 1.7 | 2.6 | 0.00 | 0.00 | 0.00 | 36 | 1013.0 |
| 20260504231237 | 74 | 119 | 0.9 | 1.7 | 0.00 | 0.00 | 0.00 | 36 | 1013.0 |
| 20260504230732 | 74 | 154 | 0.9 | 5.2 | 0.00 | 0.00 | 0.00 | 35 | 1013.0 |
| 20260504230231 | 75 | 214 | 0.9 | 2.6 | 0.00 | 0.00 | 0.00 | 36 | 1013.1 |
| 20260504225730 | 75 | 187 | 1.7 | 6.1 | 0.00 | 0.00 | 0.00 | 34 | 1013.0 |
| 20260504225226 | 75 | 161 | 0.9 | 1.7 | 0.00 | 0.00 | 0.00 | 34 | 1013.1 |
| 20260504224723 | 75 | 134 | 1.7 | 3.5 | 0.00 | 0.00 | 0.00 | 34 | 1013.2 |
| 20260504224220 | 75 | 170 | 1.7 | 3.5 | 0.00 | 0.00 | 0.00 | 34 | 1013.2 |
| 20260504223716 | 75 | 186 | 1.7 | 3.5 | 0.00 | 0.00 | 0.00 | 34 | 1013.2 |
| 20260504223212 | 76 | 198 | 0.0 | 2.6 | 0.00 | 0.00 | 0.00 | 33 | 1013.1 |
| 20260504222709 | 76 | 156 | 1.7 | 2.6 | 0.00 | 0.00 | 0.00 | 34 | 1013.1 |
| 20260504222206 | 76 | 183 | 0.9 | 0.9 | 0.00 | 0.00 | 0.00 | 33 | 1013.0 |
| 20260504221703 | 76 | 142 | 0.0 | 1.7 | 0.00 | 0.00 | 0.00 | 33 | 1013.1 |
| 20260504221200 | 77 | 214 | 1.7 | 3.5 | 0.00 | 0.00 | 0.00 | 32 | 1012.9 |
| 20260504220656 | 76 | 219 | 0.9 | 3.5 | 0.00 | 0.00 | 0.00 | 32 | 1012.9 |
| 20260504220155 | 76 | 161 | 3.5 | 6.1 | 0.00 | 0.00 | 0.00 | 33 | 1013.1 |
| 20260504215650 | 77 | 167 | 0.0 | 2.6 | 0.00 | 0.00 | 0.00 | 32 | 1012.9 |
| 20260504215148 | 77 | 132 | 0.0 | 0.9 | 0.00 | 0.00 | 0.00 | 33 | 1012.9 |
| 20260504214643 | 77 | 146 | 2.6 | 3.5 | 0.00 | 0.00 | 0.00 | 31 | 1012.8 |
| 20260504214140 | 78 | 154 | 1.7 | 3.5 | 0.00 | 0.00 | 0.00 | 32 | 1012.9 |
| 20260504213637 | 79 | 226 | 2.6 | 3.5 | 0.00 | 0.00 | 0.00 | 31 | 1013.1 |
| 20260504213134 | 79 | 171 | 0.0 | 8.7 | 0.00 | 0.00 | 0.00 | 31 | 1012.9 |
| 20260504212630 | 79 | 172 | 0.9 | 5.2 | 0.00 | 0.00 | 0.00 | 31 | 1013.1 |
| 20260504212127 | 79 | 219 | 1.7 | 5.2 | 0.00 | 0.00 | 0.00 | 30 | 1012.9 |
| 20260504211625 | 79 | 184 | 0.0 | 1.7 | 0.00 | 0.00 | 0.00 | 33 | 1013.1 |
| 20260504211121 | 79 | 216 | 1.7 | 5.2 | 0.00 | 0.00 | 0.00 | 31 | 1013.0 |
| 20260504210619 | 81 | 183 | 0.9 | 5.2 | 0.00 | 0.00 | 0.00 | 30 | 1012.9 |
| 20260504210114 | 79 | 195 | 0.0 | 2.6 | 0.00 | 0.00 | 0.00 | 31 | 1013.0 |
| 20260504205612 | 79 | 165 | 0.9 | 3.5 | 0.00 | 0.00 | 0.00 | 34 | 1012.8 |
| 20260504205110 | 78 | 196 | 2.6 | 3.5 | 0.00 | 0.00 | 0.00 | 32 | 1013.0 |
| 20260504204608 | 79 | 193 | 1.7 | 3.5 | 0.00 | 0.00 | 0.00 | 31 | 1012.9 |
| 20260504204107 | 80 | 217 | 0.9 | 3.5 | 0.00 | 0.00 | 0.00 | 31 | 1013.1 |
| 20260504203605 | 80 | 188 | 0.0 | 2.6 | 0.00 | 0.00 | 0.00 | 31 | 1013.1 |
| 20260504203102 | 79 | 186 | 0.9 | 2.6 | 0.00 | 0.00 | 0.00 | 31 | 1013.3 |
| 20260504202557 | 80 | 202 | 2.6 | 5.2 | 0.00 | 0.00 | 0.00 | 31 | 1013.3 |
| 20260504202054 | 80 | 178 | 1.7 | 1.7 | 0.00 | 0.00 | 0.00 | 33 | 1013.5 |
| 20260504201551 | 80 | 180 | 0.0 | 1.7 | 0.00 | 0.00 | 0.00 | 31 | 1013.3 |
| 20260504201049 | 78 | 183 | 0.0 | 1.7 | 0.00 | 0.00 | 0.00 | 34 | 1013.3 |
| 20260504200545 | 78 | 214 | 2.6 | 5.2 | 0.00 | 0.00 | 0.00 | 32 | 1013.3 |
| 20260504200042 | 79 | 143 | 4.3 | 7.0 | 0.00 | 0.00 | 0.00 | 31 | 1013.4 |
| 20260504195538 | 79 | 169 | 0.9 | 1.7 | 0.00 | 0.00 | 0.00 | 32 | 1013.5 |
| 20260504195035 | 80 | 118 | 0.9 | 5.2 | 0.00 | 0.00 | 0.00 | 32 | 1013.6 |
| 20260504194531 | 78 | 183 | 1.7 | 1.7 | 0.00 | 0.00 | 0.00 | 32 | 1013.8 |
| 20260504194027 | 78 | 290 | 2.6 | 2.6 | 0.00 | 0.00 | 0.00 | 32 | 1013.8 |
| 20260504193524 | 77 | 169 | 0.0 | 0.0 | 0.00 | 0.00 | 0.00 | 32 | 1013.9 |
| 20260504193022 | 76 | 186 | 1.7 | 6.1 | 0.00 | 0.00 | 0.00 | 33 | 1014.0 |
| 20260504192520 | 76 | 130 | 1.7 | 2.6 | 0.00 | 0.00 | 0.00 | 33 | 1014.1 |
| 20260504192018 | 77 | 169 | 0.0 | 0.0 | 0.00 | 0.00 | 0.00 | 34 | 1014.1 |
| 20260504191516 | 77 | 211 | 1.7 | 2.6 | 0.00 | 0.00 | 0.00 | 32 | 1014.1 |
| 20260504191012 | 77 | 182 | 0.9 | 0.9 | 0.00 | 0.00 | 0.00 | 34 | 1014.5 |
| 20260504190508 | 77 | 203 | 0.9 | 1.7 | 0.00 | 0.00 | 0.00 | 32 | 1014.4 |